[[{"header":{"parameterUnit":"m.s-1","parameterCategory":1,"la1":30.2991,"la2":30.254,"lo1":-89.0895,"lo2":-89.0444,"dy":0.0017,"dx":0.0017,"nx":28,"ny":28,"refTime":"2024-04-14T09:00:00:Z","depth":0,"parameterNumber":2,"parameterNumberName":"U-component_of_WINDS"},"data":[0,0,0,0,0,0,0,0,0,0,0,0,0,0,0,0,0,0,0,0,0,0,0,0,0,0,0,0,0,0,0,0,0,0,0,0,0,0,0,0,0,0,0,0,0,0,0,0,0,0,0,0,0,0,0,0,0,0,0.7342,0.7343,0,0.7433,0.7434,0.7435,0.747,0.747,0.747,0.7469,0.7561,0.7564,0.7567,0,0,0,0,0,0,0,0,0,0,0,0,0,0.7194,0.7197,0.7342,0.7343,0.7344,0.7433,0.7434,0.7436,0.747,0.747,0.747,0.7469,0.756,0.7564,0.7567,0,0,0,0,0,0,0,0,0,0,0,0,0,0.7269,0.7197,0.7341,0.7372,0.7376,0.7433,0.7434,0.7436,0.747,0.747,0.7469,0.7469,0.7559,0.7563,0.7567,0.76,0,0,0.758,0.7581,0,0,0,0,0,0,0,0,0.7265,0.7274,0.7366,0.737,0.7374,0.744,0.7416,0.7491,0.747,0.7434,0.7469,0.7469,0.7521,0.7528,0.7546,0.7605,0.7609,0.758,0.7582,0.7584,0.7585,0,0,0,0,0,0,0,0.726,0.7271,0.7378,0.7368,0.7372,0.738,0.7391,0.7431,0.7479,0.7437,0.744,0.7451,0.7523,0.7542,0.7549,0.761,0.758,0.7583,0.7586,0.7588,0.77,0.77,0,0,0,0,0,0,0.725,0.7266,0.7375,0.7381,0.7317,0.7383,0.7395,0.7419,0.7478,0.7487,0.7451,0.7452,0.7536,0.7544,0.7552,0.7595,0.7584,0.7588,0.759,0.7699,0.77,0.77,0,0,0,0,0,0,0.7246,0.7259,0.7371,0.7324,0.7339,0.7386,0.7413,0.7421,0.744,0.7489,0.7497,0.7462,0.7536,0.7546,0.7588,0.7598,0.759,0.7593,0.7698,0.7699,0.77,0.768,0,0,0,0,0,0,0.7242,0.7258,0.7271,0.7324,0.7341,0.7406,0.7414,0.7423,0.7448,0.745,0.7501,0.7509,0.7536,0.7582,0.7592,0.7604,0.7597,0.7698,0.7699,0.77,0.768,0.768,0.768,0,0,0,0,0,0.7237,0.7261,0.7272,0.7285,0.736,0.7407,0.7417,0.7448,0.7448,0.7462,0.7493,0.7508,0.7595,0.7586,0.7598,0.7611,0.7697,0.7699,0.77,0.768,0.768,0.768,0,0,0,0,0,0,0.7208,0.7269,0.7281,0.7324,0.736,0.7413,0.7431,0.7447,0.7483,0.7483,0.752,0.7531,0.757,0.7594,0.7583,0.7645,0.7647,0.7651,0.7628,0.7628,0.7628,0.7622,0.76,0,0,0,0,0,0.7206,0.724,0.7292,0.7325,0.7342,0.7383,0.7405,0.7426,0.7464,0.748,0.7514,0.755,0.7586,0.7608,0.7644,0.7683,0.7695,0.7698,0.7698,0.7698,0.77,0.7723,0.7725,0.7704,0.7704,0.7704,0,0,0.7204,0.7241,0.7261,0.732,0.735,0.7384,0.7396,0.7431,0.7456,0.7485,0.7527,0.7553,0.7595,0.7636,0.7656,0.7658,0.7709,0.7699,0.7699,0.7702,0.7724,0.7726,0.7728,0.7705,0.7705,0.7705,0,0,0.7216,0.7249,0.7279,0.731,0.7356,0.7383,0.739,0.7441,0.7459,0.7502,0.7524,0.7554,0.7615,0.7645,0.7667,0.7691,0.7706,0.7702,0.7702,0.7723,0.7724,0.7726,0.7734,0.7737,0.7704,0.7704,0.7704,0,0.7207,0.726,0.7293,0.7327,0.7352,0.738,0.7411,0.7439,0.7494,0.751,0.7512,0.7589,0.762,0.7668,0.7673,0.7691,0.77,0.7696,0.7722,0.7724,0.7726,0.7734,0.7737,0.7703,0.7703,0.7703,0.7703,0,0.7246,0.7282,0.7301,0.7354,0.7381,0.7414,0.7451,0.7475,0.7493,0.752,0.7562,0.76,0.7644,0.7657,0.7675,0.7707,0.7707,0.7715,0.7717,0.7726,0.7734,0.7738,0.7702,0.7702,0.7703,0.7703,0,0,0.7243,0.7314,0.732,0.7345,0.7398,0.7426,0.7459,0.7502,0.7522,0.7558,0.7587,0.7638,0.7645,0.7671,0.7693,0.7711,0.7727,0.7717,0.7719,0.7717,0.7764,0.7758,0.7761,0.7737,0.7738,0.7739,0.7761,0,0.7262,0.7324,0.7355,0.7403,0.7436,0.7463,0.7492,0.7527,0.7553,0.7584,0.7612,0.7648,0.7655,0.7671,0.7691,0.7721,0.7737,0.772,0.7763,0.7765,0.7752,0.7766,0.7759,0.7778,0.7764,0.7765,0.7765,0,0.7293,0.733,0.7382,0.743,0.7446,0.7471,0.7513,0.7543,0.7583,0.7601,0.763,0.7651,0.7686,0.7686,0.7735,0.7722,0.7742,0.776,0.7761,0.7766,0.7765,0.7771,0.7785,0.7788,0.7771,0.777,0.777,0,0.7285,0.7348,0.7387,0.7407,0.7465,0.7482,0.7507,0.7547,0.7571,0.7607,0.7623,0.7663,0.7685,0.7715,0.7746,0.7743,0.7791,0.7794,0.7806,0.7805,0.7815,0.7814,0.7832,0.7828,0.7828,0.7828,0.7828,0,0.7303,0.7333,0.7384,0.7408,0.7443,0.7477,0.751,0.7537,0.7572,0.7601,0.7627,0.7653,0.7693,0.7724,0.7748,0.7785,0.7795,0.7809,0.7815,0.7807,0.7805,0.782,0.7819,0.7829,0.7828,0.7828,0.7828,0,0.73,0.7335,0.738,0.7431,0.7445,0.7468,0.7511,0.7535,0.7562,0.7599,0.7609,0.7651,0.7689,0.7723,0.7774,0.779,0.7827,0.7835,0.7814,0.7817,0.7827,0.7826,0.7856,0.7861,0.7853,0.7853,0.7853,0,0.7309,0.7333,0.7388,0.7409,0.7434,0.7468,0.7493,0.7528,0.7553,0.76,0.7618,0.7658,0.7692,0.7751,0.7786,0.7824,0.7833,0.7841,0.7839,0.783,0.7833,0.7831,0.7833,0.7841,0.7841,0.784,0.784,0,0.7322,0.7338,0.7373,0.7415,0.7444,0.7477,0.7512,0.7528,0.7569,0.7596,0.7635,0.7662,0.7713,0.7752,0.7795,0.782,0.7837,0.7841,0.7846,0.7837,0.7824,0.7831,0.7813,0.784,0.784,0.784,0.784,0.784,0.7325,0.7348,0.7389,0.7428,0.7457,0.7489,0.7514,0.7544,0.7578,0.7624,0.7642,0.7682,0.7721,0.778,0.7805,0.7836,0.7839,0.7846,0.7848,0.7849,0.7847,0.7819,0.7844,0.7844,0.7844,0.7844,0.7844,0,0.7339,0.7367,0.7402,0.745,0.748,0.7494,0.7533,0.7557,0.7592,0.7627,0.766,0.7705,0.7744,0.7781,0.7821,0.7839,0.7848,0.7848,0.7847,0.7853,0.7842,0.7834,0.7841,0.7841,0.7841,0.784,0.784,0.784,0.7349,0.7388,0.7409,0.7463,0.7491,0.7531,0.7552,0.7581,0.761,0.7659,0.7691,0.7716,0.7752,0.7795,0.783,0.784,0.7853,0.7852,0.7864,0.7853,0.7853,0.7853,0.7846,0.7854,0.7854,0.7871,0.7872,0.7872]},{"header":{"parameterUnit":"m.s-1","parameterCategory":1,"la1":30.2991,"la2":30.254,"lo1":-89.0895,"lo2":-89.0444,"dy":0.0017,"dx":0.0017,"nx":28,"ny":28,"refTime":"2024-04-14T09:00:00:Z","depth":0,"parameterNumber":3,"parameterNumberName":"V-component_of_WINDS"},"data":[0,0,0,0,0,0,0,0,0,0,0,0,0,0,0,0,0,0,0,0,0,0,0,0,0,0,0,0,0,0,0,0,0,0,0,0,0,0,0,0,0,0,0,0,0,0,0,0,0,0,0,0,0,0,0,0,0,0,3.3174,3.3175,0,3.3218,3.3219,3.3219,3.3212,3.3212,3.3211,3.321,3.325,3.3252,3.3254,0,0,0,0,0,0,0,0,0,0,0,0,0,3.308,3.3082,3.3174,3.3175,3.3175,3.3218,3.3219,3.3219,3.3213,3.3212,3.3211,3.321,3.325,3.3252,3.3254,0,0,0,0,0,0,0,0,0,0,0,0,0,3.3122,3.3082,3.3174,3.3177,3.3178,3.3218,3.3219,3.3219,3.3213,3.3212,3.3211,3.321,3.3249,3.3252,3.3254,3.3292,0,0,3.3262,3.3263,0,0,0,0,0,0,0,0,3.312,3.3125,3.3176,3.3177,3.3178,3.3209,3.32,3.3244,3.3213,3.3199,3.321,3.3209,3.3237,3.3241,3.3251,3.3294,3.3296,3.3263,3.3264,3.3265,3.3266,0,0,0,0,0,0,0,3.3117,3.3123,3.3191,3.3177,3.3178,3.3175,3.318,3.3208,3.3224,3.32,3.32,3.3206,3.3237,3.3249,3.3252,3.3297,3.3262,3.3265,3.3266,3.3267,3.3374,3.3375,0,0,0,0,0,0,3.3114,3.3121,3.319,3.3193,3.3146,3.3178,3.3183,3.32,3.3223,3.3226,3.3207,3.3205,3.3245,3.3249,3.3253,3.33,3.3265,3.3268,3.3269,3.3372,3.3374,3.3375,0,0,0,0,0,0,3.3112,3.312,3.3188,3.3157,3.3165,3.318,3.3199,3.3201,3.3213,3.3228,3.323,3.3216,3.3244,3.325,3.3283,3.3301,3.3269,3.3271,3.3371,3.3373,3.3374,3.3393,0,0,0,0,0,0,3.3109,3.3119,3.3135,3.3157,3.3167,3.3219,3.3201,3.3203,3.3218,3.3216,3.3237,3.3239,3.3244,3.3279,3.3286,3.3304,3.3273,3.3369,3.3372,3.3374,3.3391,3.3395,3.3399,0,0,0,0,0,3.3106,3.3137,3.3136,3.3144,3.3187,3.322,3.3225,3.3231,3.3219,3.3235,3.3244,3.3239,3.3298,3.3283,3.329,3.331,3.3368,3.3371,3.3374,3.3389,3.3395,3.3399,0,0,0,0,0,0,3.3114,3.314,3.3139,3.3179,3.3197,3.3218,3.3238,3.3236,3.3257,3.3254,3.3259,3.3264,3.3298,3.3307,3.3289,3.3348,3.3331,3.3336,3.3341,3.3346,3.335,3.3347,3.3276,0,0,0,0,0,3.3121,3.3147,3.3167,3.32,3.321,3.3223,3.3237,3.324,3.3258,3.3266,3.3278,3.3295,3.3318,3.3332,3.3354,3.3392,3.3397,3.3409,3.3413,3.3417,3.342,3.3442,3.3448,3.3384,3.3384,3.3384,0,0,3.3134,3.3152,3.3168,3.3203,3.3217,3.3243,3.3229,3.3256,3.3275,3.3269,3.3302,3.3312,3.3331,3.3368,3.3384,3.3376,3.3439,3.342,3.3423,3.3425,3.3445,3.3451,3.3456,3.3386,3.3386,3.3386,0,0,3.3173,3.3189,3.3219,3.3234,3.3257,3.3266,3.3273,3.3295,3.3302,3.3335,3.3332,3.3353,3.3392,3.3406,3.3418,3.3463,3.3458,3.347,3.3491,3.3512,3.3517,3.3521,3.3537,3.3543,3.3473,3.3473,3.3473,0,3.3186,3.3226,3.3233,3.3262,3.3277,3.3275,3.3305,3.3319,3.3347,3.3357,3.3349,3.3398,3.3411,3.3451,3.3462,3.3472,3.3479,3.3467,3.3516,3.352,3.3525,3.354,3.3546,3.3475,3.3474,3.3474,3.3474,0,3.3242,3.3269,3.329,3.332,3.3338,3.3366,3.3377,3.3394,3.3395,3.3404,3.3438,3.3454,3.3479,3.3488,3.3489,3.3528,3.3523,3.3515,3.3498,3.3532,3.3546,3.3552,3.3476,3.3476,3.3476,3.3475,0,0,3.3285,3.332,3.3328,3.3342,3.3368,3.3389,3.3417,3.3443,3.3457,3.3477,3.35,3.3534,3.3527,3.3541,3.3544,3.3562,3.3597,3.3552,3.3552,3.3559,3.3641,3.3647,3.3653,3.3594,3.3595,3.3596,3.3639,0,3.3326,3.3379,3.3387,3.3432,3.3457,3.3456,3.3481,3.3499,3.3508,3.353,3.3539,3.3563,3.3552,3.3561,3.3579,3.3589,3.3613,3.3585,3.3615,3.3616,3.361,3.3661,3.3667,3.3707,3.3645,3.3646,3.3646,0,3.3381,3.3404,3.3453,3.3477,3.3487,3.351,3.3535,3.3556,3.3576,3.3581,3.3598,3.3598,3.3626,3.3609,3.3648,3.3629,3.3641,3.3648,3.365,3.3652,3.3633,3.3665,3.372,3.3726,3.3655,3.3655,3.3654,0,3.3408,3.3452,3.3487,3.3498,3.3527,3.3542,3.3555,3.3574,3.3589,3.3611,3.3621,3.3644,3.3657,3.3675,3.3682,3.3669,3.372,3.3703,3.3724,3.3724,3.3735,3.3734,3.3793,3.3743,3.3743,3.3743,3.3743,0,3.3453,3.3483,3.35,3.3521,3.3554,3.3563,3.3595,3.3606,3.3623,3.3646,3.3646,3.3667,3.3674,3.3696,3.3701,3.3732,3.3738,3.3742,3.3743,3.3743,3.3742,3.375,3.3748,3.3744,3.3744,3.3744,3.3743,0,3.3489,3.3502,3.354,3.3564,3.3571,3.3594,3.3614,3.3635,3.3644,3.3673,3.368,3.3694,3.372,3.3728,3.3759,3.3762,3.3799,3.3797,3.3793,3.3793,3.3813,3.3811,3.388,3.3889,3.3833,3.3833,3.3834,0,3.3517,3.354,3.3568,3.3584,3.3597,3.3623,3.364,3.3648,3.3665,3.3691,3.3708,3.3734,3.3755,3.3796,3.3808,3.3832,3.3831,3.3853,3.3834,3.3833,3.3831,3.383,3.3832,3.3856,3.3857,3.3857,3.3858,0,3.3565,3.357,3.3595,3.3623,3.3643,3.3664,3.3685,3.3698,3.3709,3.3728,3.3756,3.3773,3.3805,3.3831,3.3855,3.3866,3.3864,3.3864,3.387,3.3869,3.3866,3.3868,3.3802,3.3862,3.3862,3.3861,3.3861,3.3861,3.3597,3.3618,3.3642,3.3669,3.3686,3.3706,3.3727,3.3739,3.3763,3.3792,3.3795,3.3824,3.3844,3.3877,3.3889,3.3911,3.3905,3.3913,3.3916,3.3918,3.392,3.3863,3.3915,3.3915,3.3915,3.3915,3.3915,0,3.3646,3.3661,3.3687,3.3717,3.3738,3.3737,3.3759,3.3777,3.3804,3.3823,3.3845,3.3877,3.3902,3.3916,3.3941,3.3956,3.3956,3.3963,3.3962,3.3964,3.3924,3.3916,3.3963,3.3963,3.3963,3.3963,3.3963,3.3963,3.3673,3.3709,3.3717,3.3761,3.3776,3.3806,3.382,3.3837,3.3853,3.3889,3.3911,3.3921,3.3938,3.3964,3.3987,3.3991,3.4,3.4007,3.401,3.3972,3.3967,3.3962,3.3955,3.4009,3.4009,3.4048,3.4049,3.4049]}]]